Карточка аэропорта UNOO

Внимание!
Информация на этой странице в стадии наполнения.
Если вы не увидели какой-то информации, или заметили неточность - пожалуйста сообщите нам!
Спасибо!
Команда RU-STAFF
Название аэропортаЦентральный
Название аэропорта (англ.)Tsentralny
Превышение303 ft. (92.4 m.)
Координаты54°58.02', 73°19.02'
Высота перехода800m
Эшелон переходаQFE>=751mm:FL050; QFE<751=>724:FL060; QFE<724:FL070
Коды ответчика5440-5457
Зона ОрВДНовосибирск РПИ (UNNT)
Данные METARUNOO 241530Z 26003MPS CAVOK 04/M00 Q1026 R25/CLRD60 NOSIG RMK QFE761
Проноз погоды (TAF)UNOO 241350Z 2415/2515 27003G09MPS 9999 NSC TEMPO 2418/2503 1000 MIFG BR SCT005 BECMG 2503/2504 31003G10MPS BKN030 BECMG 2506/2508 36003G09MPS
NOTAMshow/hide NOTAM
AWOS   TABLE

Информация о ВПП

ВПП Длина ВПП (м.) Покрытие Курс ВПП Частота ILS
072501Асфальтобетон65108.3
252501Асфальтобетон245110.1

Диспетчерские позиции

Позывной Наименование органа УВД Частота
UNOO_GNDОмск-Руление121.700
UNOO_TWRОмск - Старт119.000
UNOO_APPОмск - Подход131.200



Спутниковое изображение